Simultaneous Nadir Overpasses (SNOs) Predictions

Prediction of SNOs between GOES-15 and METOP-B Satellite Orbit:

Table of predicted SNOs for the next 14.0 days since TLE Epoch: 6/14/2024
Index Date Time (GOES-15) GOES-15 Lat,Lon METOP-B Lat,Lon Distance(km) Time Diff (sec)
1 06/16/2024 05:22:14 -0.18, 61.31 0.02, 60.27 118.30 80
2 06/17/2024 04:58:51 -0.20, 61.30 -1.06, 65.28 452.26 80
3 06/18/2024 17:20:26 0.18, 61.31 0.05, 60.69 71.11 80
4 06/19/2024 16:57:03 0.20, 61.31 1.14, 65.70 499.29 80
5 06/21/2024 05:18:29 -0.17, 61.27 -0.15, 61.14 15.26 80
6 06/23/2024 17:14:01 0.17, 61.30 0.25, 61.55 29.33 80
7 06/25/2024 05:35:26 -0.15, 61.27 0.80, 57.01 485.53 80
8 06/26/2024 05:12:04 -0.17, 61.28 -0.36, 62.01 83.64 80
9 06/27/2024 17:33:37 0.14, 61.31 -0.73, 57.44 441.90 80
10 06/28/2024 17:10:14 0.17, 61.31 0.43, 62.43 127.52 80
